Weather History for Pensacola NAS, FL

Change the Weather History Date:

Sunday, November 4, 2012

  Actual Average Record
Temperature  
Mean Temperature 68 °F -  
Max Temperature 82 °F 72 °F 86 °F (2001)
Min Temperature 55 °F 54 °F 32 °F (1999)
Cooling Degree Days 2    
Growing Degree Days 18 (Base 50)    
Moisture  
Dew Point 60 °F    
Average Humidity 91    
Maximum Humidity 100    
Minimum Humidity 50    
Precipitation  
Precipitation 0.00 in - - ()
Sea Level Pressure  
Sea Level Pressure 30.07 in    
Wind  
Wind Speed 2 mph (NW)    
Max Wind Speed 10 mph    
Max Gust Speed 17 mph    
Visibility 5 miles    
Events Fog , Rain    
Averages and records for this station are not official NWS values.
T = Trace of Precipitation, MM = Missing Value Source: NWS Daily Summary

Daily Weather History Graph

Daily Weather History Graph

Search for Another Location

Airport:

Trip Planner

Search our weather history database for the weather conditions in past years. The results will help you decide how hot, cold, wet, or windy it might be!

Date:

Astronomy

Nov. 04, 2012 Rise Set
Actual Time 6:06 AM CST 4:58 PM CST
Civil Twilight 5:41 AM CST 5:23 PM CST
Nautical Twilight 5:12 AM CST 5:52 PM CST
Astronomical Twilight 4:44 AM CST 6:20 PM CST
Moon 9:39 PM CST (11/4) 10:45 AM CST (11/4)
Length of Visible Light 11h 42m
Length of Day
10h 52m
Waning Gibbous, 72% of the Moon is Illuminated
Nov 4
Waning Gibbous
Nov 6
Last Quarter
Nov 13
New
Nov 20
First Quarter
Nov 28
Full

Hourly Weather History & Observations

Time (CST) Temp. Heat Index Dew Point Humidity Pressure Visibility Wind Dir Wind Speed Gust Speed Precip Events Conditions
12:01 AM 57.2 °F - 57.2 °F 100% 30.08 in 1.0 mi Calm Calm - N/A   Mist
12:05 AM 57.2 °F - 57.2 °F 100% 30.08 in 0.2 mi Calm Calm - N/A Fog Fog
12:19 AM 55.4 °F - 55.4 °F 100% 30.08 in 0.5 mi Calm Calm - N/A Fog Fog
12:28 AM 59.0 °F - 59.0 °F 100% 30.08 in 0.2 mi Calm Calm - N/A Fog Fog
12:35 AM 59.0 °F - 59.0 °F 100% 30.08 in 1.2 mi Calm Calm - N/A   Clear
12:38 AM 59.0 °F - 59.0 °F 100% 30.08 in 4.0 mi Calm Calm - N/A   Clear
12:47 AM 60.8 °F - 60.8 °F 100% 30.08 in 1.8 mi Calm Calm - N/A   Clear
12:56 AM 57.9 °F - 57.9 °F 100% 30.08 in 4.0 mi Calm Calm - N/A   Clear
1:56 AM 59.0 °F - 59.0 °F 100% 30.08 in 3.0 mi Calm Calm - N/A   Clear
1:08 AM 59.0 °F - 59.0 °F 100% 30.07 in 2.5 mi Calm Calm - N/A   Scattered Clouds
1:10 AM 59.0 °F - 59.0 °F 100% 30.07 in 1.0 mi Calm Calm - N/A   Mist
1:14 AM 57.2 °F - 57.2 °F 100% 30.07 in 0.2 mi Calm Calm - N/A Fog Fog
1:26 AM 59.0 °F - 59.0 °F 100% 30.07 in 0.5 mi Calm Calm - N/A Fog Fog
1:31 AM 60.8 °F - 60.8 °F 100% 30.07 in 0.2 mi Calm Calm - N/A Fog Fog
1:34 AM 59.0 °F - 59.0 °F 100% 30.07 in 0.5 mi Calm Calm - N/A Fog Fog
1:45 AM 57.2 °F - 57.2 °F 100% 30.07 in 0.2 mi Calm Calm - N/A Fog Fog
1:56 AM 57.0 °F - 57.0 °F 100% 30.07 in 0.2 mi Calm Calm - N/A Fog Fog
2:08 AM 57.2 °F - 57.2 °F 100% 30.07 in 1.0 mi Calm Calm - N/A   Mist
2:12 AM 57.2 °F - 57.2 °F 100% 30.07 in 3.0 mi Calm Calm - N/A   Mostly Cloudy
2:21 AM 57.2 °F - 57.2 °F 100% 30.07 in 3.0 mi Calm Calm - N/A   Scattered Clouds
2:23 AM 57.2 °F - 57.2 °F 100% 30.07 in 1.0 mi WSW 3.5 mph - N/A   Mist
2:30 AM 55.4 °F - 55.4 °F 100% 30.07 in 0.5 mi Calm Calm - N/A Fog Fog
2:41 AM 57.2 °F - 57.2 °F 100% 30.06 in 1.2 mi West 3.5 mph - N/A Rain Light Rain
2:46 AM 57.2 °F - 57.2 °F 100% 30.06 in 3.0 mi Calm Calm - N/A Rain Light Rain
2:56 AM 59.0 °F - 59.0 °F 100% 30.06 in 5.0 mi West 3.5 mph - N/A   Clear
3:16 AM 60.8 °F - 60.8 °F 100% 30.05 in 1.8 mi Calm Calm - N/A   Partly Cloudy
3:24 AM 57.2 °F - 57.2 °F 100% 30.06 in 0.8 mi Calm Calm - N/A   Mist
3:38 AM 59.0 °F - 59.0 °F 100% 30.05 in 0.2 mi Calm Calm - N/A Fog Fog
3:56 AM 63.0 °F - 63.0 °F 100% 30.06 in 0.2 mi Calm Calm - N/A Fog , Rain Light Rain
4:49 AM 62.6 °F - 62.6 °F 100% 30.07 in 0.5 mi Calm Calm - N/A Fog Fog
4:56 AM 63.0 °F - 63.0 °F 100% 30.08 in 0.5 mi Calm Calm - N/A Fog Fog
5:09 AM 62.6 °F - 62.6 °F 100% 30.07 in 1.0 mi WNW 3.5 mph - N/A   Mist
5:15 AM 62.6 °F - 62.6 °F 100% 30.08 in 3.0 mi Calm Calm - N/A   Mostly Cloudy
5:25 AM 62.6 °F - 62.6 °F 100% 30.08 in 5.0 mi WNW 3.5 mph - N/A Rain Light Rain
5:48 AM 64.4 °F - 64.4 °F 100% 30.08 in 2.5 mi WNW 4.6 mph - N/A   Mostly Cloudy
5:56 AM 64.0 °F - 64.0 °F 100% 30.09 in 1.8 mi WNW 4.6 mph - N/A   Mostly Cloudy
6:04 AM 64.4 °F - 64.4 °F 100% 30.09 in 3.0 mi WNW 3.5 mph - N/A   Overcast
6:34 AM 64.4 °F - 64.4 °F 100% 30.09 in 4.0 mi Variable 3.5 mph - N/A   Scattered Clouds
6:56 AM 64.0 °F - 64.0 °F 100% 30.10 in 5.0 mi Variable 3.5 mph - N/A   Clear
7:31 AM 66.2 °F - 66.2 °F 100% 30.10 in 6.0 mi WNW 4.6 mph - N/A   Partly Cloudy
7:56 AM 66.9 °F - 66.9 °F 100% 30.11 in 6.0 mi WNW 5.8 mph - N/A   Mostly Cloudy
8:47 AM 68.0 °F - 66.2 °F 94% 30.11 in 10.0 mi NW 9.2 mph - N/A   Mostly Cloudy
8:56 AM 69.1 °F - 66.0 °F 90% 30.11 in 10.0 mi NNW 10.4 mph 17.3 mph N/A   Mostly Cloudy
9:08 AM 71.6 °F - 66.2 °F 83% 30.10 in 10.0 mi NW 5.8 mph - N/A   Mostly Cloudy
9:56 AM 75.9 °F - 64.9 °F 69% 30.10 in 10.0 mi NNW 9.2 mph - N/A   Mostly Cloudy
10:56 AM 78.1 °F - 63.0 °F 60% 30.09 in 10.0 mi NNW 9.2 mph - N/A   Mostly Cloudy
11:56 AM 79.0 °F - 62.1 °F 56% 30.05 in 10.0 mi Variable 5.8 mph - N/A   Mostly Cloudy
12:56 PM 80.1 °F 80.9 °F 60.1 °F 50% 30.03 in 10.0 mi NNW 8.1 mph - N/A   Mostly Cloudy
1:56 PM 77.0 °F - 64.0 °F 64% 30.02 in 10.0 mi SW 10.4 mph - N/A   Mostly Cloudy
2:56 PM 78.1 °F - 57.9 °F 50% 30.01 in 10.0 mi NW 6.9 mph - N/A   Mostly Cloudy
3:56 PM 73.9 °F - 59.0 °F 59% 30.01 in 10.0 mi Variable 3.5 mph - N/A   Overcast
4:18 PM 73.4 °F - 59.0 °F 61% 30.00 in 10.0 mi WSW 3.5 mph - N/A Rain Light Rain
4:40 PM 71.6 °F - 60.8 °F 69% 30.01 in 10.0 mi NW 6.9 mph - N/A   Overcast
4:56 PM 71.1 °F - 60.1 °F 68% 30.02 in 10.0 mi NNW 9.2 mph - 0.00 in   Overcast
5:56 PM 68.0 °F - 59.0 °F 73% 30.03 in 10.0 mi NNW 4.6 mph - N/A   Mostly Cloudy
6:56 PM 66.0 °F - 60.1 °F 81% 30.04 in 10.0 mi NNW 5.8 mph - N/A   Mostly Cloudy
7:56 PM 64.9 °F - 59.0 °F 81% 30.05 in 10.0 mi NNW 4.6 mph - N/A   Mostly Cloudy
8:30 PM 62.6 °F - 59.0 °F 88% 30.05 in 10.0 mi NW 5.8 mph - N/A   Mostly Cloudy
8:56 PM 63.0 °F - 57.9 °F 84% 30.06 in 10.0 mi North 6.9 mph - N/A   Clear
9:56 PM 62.1 °F - 57.9 °F 86% 30.06 in 10.0 mi North 3.5 mph - N/A   Clear
10:56 PM 60.1 °F - 57.9 °F 93% 30.06 in 10.0 mi NNW 3.5 mph - N/A   Clear